Location: Crni Vrh Observatory
(45.9460°N, 14.0712°E)
Time: 18:44:52
(UTC+02:00)

Tiangong 2 - Visible Passes

Search period start: 20 July 2018 00:00
Search period end: 30 July 2018 00:00
Orbit: 386 x 394 km, 42.8° (Epoch: 20 July)

Date Brightness Start Highest point End Pass type
(mag) Time Alt. Az. Time Alt. Az. Time Alt. Az.
20 Jul 1.8 21:28:26 10° W 21:31:27 39° S 21:34:27 10° ESE visible
20 Jul 3.5 23:05:51 10° WSW 23:06:46 13° SW 23:06:46 13° SW visible
21 Jul 2.7 22:07:46 10° WSW 22:10:19 22° SSW 22:11:28 18° S visible
23 Jul 3.4 21:49:40 10° WSW 21:51:31 14° SSW 21:53:16 10° S visible
